Погода в Днепровке

Украина / Запорожская область     48°04′40″N   35°10′36″E
темп.,
°C
ветер,
м/с
пор.,
м/с
влажн.,
%
обл.,
%
осадки,
мм/ч
давл.,
гПа
погр.,
м
14 апреля, ср
ср1400:00+7ююв349127 0.0 102182
03:00+6юв2294100 0.0 102023
06:00+5юв2294100 0.0 101928
09:00+9юв2376100 0.0 1019375
12:00+12ююв3364100 0.0 1017826
15:00+13юв2358100 0.0 10161087
18:00+14ююв345822 0.0 1015963
21:00+10ююв47683 0.0 1016119
15 апреля, чт
чт1500:00+7ююв358458 0.0 1015102
03:00+7юв3785100 0.0 1014239
06:00+6ююв3797100 0.0 1014185
09:00+8ююв5792100 1.8 1014326
12:00+11ю5780100 0.3 1014856
15:00+13ююз685971 2.6 10131510
18:00+12ююз6863100 0.0 1013944
21:00+9ю587381 0.0 1014432
16 апреля, пт
пт1600:00+8ююз588184 0.2 1014598
03:00+7ююз5879100 0.2 1014637
06:00+7ююз5889100 0.0 1014670
09:00+7ююз5887100 0.1 1015697
12:00+8ююз6881100 0.1 10161002
15:00+11ююз6868100 0.4 10161430
18:00+11ююз576347 0.4 10161024
21:00+8юз487037 0.5 1018383
17 апреля, сб
сб1700:00+5ююз47858 0.0 1019183
03:00+5ююз368389 0.0 1019353
06:00+5ююз3487100 0.1 1020386
09:00+6юз3481100 0.1 1021594
12:00+7зюз3479100 0.1 1021752
15:00+9з3370100 0.1 10211071
18:00+10з3368100 0.1 1021607
21:00+8ююз2479100 0.1 1021107
18 апреля, вс
вс1800:00+8ююз2281100 0.0 102156
03:00+8ююз2384100 0.0 102072
06:00+8ю2284100 0.0 102033
09:00+10ю227054 0.1 1020376
12:00+13юв2151100 0.1 10211493
15:00+13всв225399 0.1 10211133
18:00+13всв445662 0.0 10211051
21:00+9св47725 0.0 1022153